COSMOS 1579 COOLANT, 26520

Orbit data source: Space-Track

COSMOS 1579 COOLANT, 26520 is space debris in LEO originally from a launch on Fri, 29 Jun 1984 UTC launched from the Tyuratam Missile And Space Complex (TTMTR). Debris objects in space refer to the collection of defunct objects orbiting the Earth. Examples of debris include non-operational satellites, rocket bodies, and fragments generated from explosions, collisions, or faulty payload assembly.

Loading next visibility...
Identifier
26520, 1984-069M
Orbit
LEO
Country
Flag of CISCIS
Related business
Manufacturer
Unknown
Mission
Spacecraft
Bus & Motor
Unknown
Mass
Unknown
Launch date (UTC)
1984-06-29 (41 years ago)
Launch vehicle
Unknown
Launch site
Tyuratam Missile And Space Complex (TTMTR)
Object type
Payload
Rocket body
Debris
Shape & HBR
Unknown shape, 0.1 m
Radar Cross Section
Small (<0.1 m²)

Expand to show TLE details & history
Last TLE update: 4 days ago

TLE from 4 days ago
0 COSMOS 1579 COOLANT
1 26520U 84069M   25289.01772728  .00000207  00000-0  23553-3 0  9992
2 26520  65.0479 190.5476 0029118 108.0654 270.2697 13.90932672626420
Epoch: 2025-10-16T00:25Z
TLE epoch observation values (Epoch: 2025-10-16T00:25:31.636Z)
Latitude
16.27169°
Longitude
167.14674°
Altitude
926.614 km
Speed
7.39 km/s
True Right ascension
13h 13m 14s
True Declination
16° 10' 54"
Sunlit
Object was in daylight at epoch
Visualization orbit readout
Latitude
Unknown
Longitude
Unknown
Altitude
Unknown
Speed
Unknown
Apparent Right ascension
Unknown
Apparent Declination
Unknown
Sunlit
N/A
Visualization observer readout
Local Sidereal Time
12:25:23
Azimuth
Unknown
Elevation
Unknown
Doppler factor
Unknown
Orbital elements
Apogee altitude
945.226 km
Perigee altitude
902.701 km
Semi-major axis
7,302.1 km
Eccentricity
0.00291
Inclination
65.0479°
RAAN
190.5476°
Arg. of periapsis
108.0654°
True anomaly
269.93603°
Mean anomaly
270.2697°
Eccentric anomaly
270.10287°
Mean motion
3.47834 °/min
Orbital period
103.5 mins
BSTAR
0.00023553
Loading maneuver chart data...
Computing Atmospheric mass density...

Documentation

Showing up to 5 results
|